TimeMDT,TemperatureF,Dew PointF,Humidity,Sea Level PressureIn,VisibilityMPH,Wind Direction,Wind SpeedMPH,Gust SpeedMPH,PrecipitationIn,Events,Conditions,WindDirDegrees,DateUTC
12:53 AM,72.0,32.0,23,29.57,10.0,WNW,11.5,-,N/A,,Clear,300,2013-06-04 06:53:00
1:53 AM,71.1,48.0,44,29.58,10.0,North,5.8,-,N/A,,Clear,350,2013-06-04 07:53:00
2:53 AM,66.9,48.0,51,29.60,10.0,NW,8.1,-,N/A,,Clear,320,2013-06-04 08:53:00
3:53 AM,66.0,48.0,52,29.64,10.0,WNW,15.0,-,N/A,,Clear,300,2013-06-04 09:53:00
4:53 AM,63.0,48.9,60,29.67,10.0,NNW,5.8,-,N/A,,Clear,340,2013-06-04 10:53:00
5:53 AM,61.0,50.0,67,29.71,9.0,NW,4.6,-,N/A,,Clear,320,2013-06-04 11:53:00
6:53 AM,64.0,52.0,65,29.74,9.0,North,9.2,-,N/A,,Clear,350,2013-06-04 12:53:00
7:53 AM,68.0,54.0,61,29.75,10.0,NNW,15.0,-,N/A,,Clear,340,2013-06-04 13:53:00
8:53 AM,66.9,55.0,66,29.79,10.0,North,18.4,-,N/A,,Clear,360,2013-06-04 14:53:00
9:53 AM,75.9,55.9,50,29.79,9.0,North,17.3,-,N/A,,Clear,10,2013-06-04 15:53:00
10:53 AM,78.1,55.9,46,29.79,10.0,NE,19.6,24.2,N/A,,Clear,40,2013-06-04 16:53:00
11:53 AM,80.1,55.9,43,29.78,-9999.0,Calm,Calm,-,N/A,,Clear,0,2013-06-04 17:53:00
12:14 PM,80.6,55.4,42,29.94,1.0,North,-9999.0,-,N/A,,Haze,0,2013-06-04 18:14:00
12:16 PM,80.6,55.4,42,29.94,3.0,North,-9999.0,-,N/A,,Haze,0,2013-06-04 18:16:00
12:53 PM,82.0,55.0,39,29.78,10.0,ENE,11.5,20.7,N/A,,Clear,60,2013-06-04 18:53:00
1:53 PM,82.9,54.0,37,29.77,10.0,ENE,11.5,20.7,N/A,,Clear,60,2013-06-04 19:53:00
2:53 PM,82.9,53.1,36,29.75,10.0,East,13.8,20.7,N/A,,Clear,90,2013-06-04 20:53:00
3:53 PM,84.9,52.0,32,29.73,10.0,East,16.1,21.9,N/A,,Clear,80,2013-06-04 21:53:00
4:53 PM,82.0,52.0,35,29.75,10.0,ENE,15.0,-,N/A,,Clear,70,2013-06-04 22:53:00
5:53 PM,80.1,53.1,39,29.78,10.0,ENE,8.1,-,N/A,,Clear,70,2013-06-04 23:53:00
6:53 PM,78.1,53.1,42,29.75,10.0,ESE,16.1,21.9,0.00,,Overcast,120,2013-06-05 00:53:00
7:53 PM,77.0,52.0,42,29.79,10.0,East,11.5,-,N/A,,Partly Cloudy,100,2013-06-05 01:53:00
8:53 PM,73.9,52.0,46,29.78,10.0,ENE,8.1,-,N/A,,Clear,70,2013-06-05 02:53:00
9:53 PM,70.0,57.0,63,29.79,10.0,East,11.5,-,N/A,,Clear,80,2013-06-05 03:53:00
10:53 PM,66.0,57.0,73,29.86,10.0,ENE,15.0,-,N/A,,Partly Cloudy,60,2013-06-05 04:53:00
11:10 PM,66.2,59.0,78,29.99,10.0,ENE,17.3,24.2,N/A,,Mostly Cloudy,60,2013-06-05 05:10:00
11:53 PM,66.0,57.9,75,29.85,10.0,NE,19.6,27.6,N/A,,Overcast,50,2013-06-05 05:53:00